Location: Altleiningen
(49.5078°N, 8.0741°E)
Time: 16:46:15
(UTC+00:00)

Cosmos 1733 Rocket - Pass Details

Date: 14 June 2025
Orbit: 597 x 622 km, 82.5° (Epoch: 12 July)

Event Time Altitude Azimuth Distance (km) Brightness Sun altitude
Rises 21:35:57 0° 355° (N) 2,901 7.9 -13.0°
Reaches altitude 10° 21:38:18 10° 3° (N) 1,987 6.7 -13.2°
Maximum altitude 21:42:27 40° 74° (ENE) 915 3.8 -13.5°
Enters shadow 21:45:03 20° 133° (SE) 1,430 4.4 -13.7°
